This is the latest recevied weather packets stored in our database for station/object JS2WAD-13. If no packets are shown the sender has not sent any weather packets the latest 10 day(s).
| Time | Temp. | Humidity | Pressure | Rain* | Wind** | Luminosity | Snow |
|---|---|---|---|---|---|---|---|
| 1777704393 | 25° C | 33% | 901.5 hPa | 0 mm | - | 156 W/m² | - |
| 1777704093 | 25° C | 33% | 901.4 hPa | 0 mm | - | 178 W/m² | - |
| 1777703793 | 25° C | 32% | 901.5 hPa | 0 mm | - | 192 W/m² | - |
| 1777703493 | 25° C | 32% | 901.4 hPa | 0 mm | - | 185 W/m² | - |
| 1777703193 | 25° C | 33% | 901.4 hPa | 0 mm | - | 200 W/m² | - |
| 1777702893 | 25° C | 32% | 901.5 hPa | 0 mm | - | 200 W/m² | - |
| 1777702593 | 25° C | 32% | 901.5 hPa | 0 mm | - | 204 W/m² | - |
| 1777702293 | 25° C | 34% | 901.4 hPa | 0 mm | - | 214 W/m² | - |
| 1777701993 | 25° C | 32% | 901.4 hPa | 0 mm | - | 274 W/m² | - |
| 1777701693 | 25° C | 39% | 901.4 hPa | 0 mm | - | 214 W/m² | - |
| 1777701393 | 24.44° C | 34% | 901.4 hPa | 0 mm | - | 399 W/m² | - |
| 1777701093 | 24.44° C | 33% | 901.4 hPa | 0 mm | - | 311 W/m² | - |
| 1777700793 | 25° C | 35% | 901.5 hPa | 0 mm | - | 206 W/m² | - |
| 1777700493 | 24.44° C | 34% | 901.5 hPa | 0 mm | - | 462 W/m² | - |
| 1777700193 | 25° C | 33% | 901.5 hPa | 0 mm | - | 301 W/m² | - |
| 1777699893 | 25° C | 35% | 901.5 hPa | 0 mm | - | 260 W/m² | - |
| 1777699593 | 25° C | 36% | 901.7 hPa | 0 mm | - | 265 W/m² | - |
| 1777699294 | 25° C | 35% | 901.7 hPa | 0 mm | - | 255 W/m² | - |
| 1777698993 | 25° C | 35% | 901.7 hPa | 0 mm | - | 325 W/m² | - |
| 1777698694 | 25° C | 37% | 901.7 hPa | 0 mm | - | 548 W/m² | - |
| 1777698393 | 25° C | 36% | 901.7 hPa | 0 mm | - | 589 W/m² | - |
| 1777698094 | 25° C | 34% | 901.7 hPa | 0 mm | - | 244 W/m² | - |
| 1777697794 | 25° C | 36% | 901.7 hPa | 0 mm | - | 747 W/m² | - |
| 1777697494 | 25° C | 35% | 901.6 hPa | 0 mm | - | 856 W/m² | - |
| 1777697194 | 25° C | 35% | 901.5 hPa | 0 mm | - | 874 W/m² | - |
* Rain latest hour (hover to see other rain measurements)
** Current wind speed in m/s (hover to see current wind gust speed)